Regional Weather Roundup
Issued by NWS Charleston, SC

Current Version | Previous Version | Graphics & Text | Print | Product List | Glossary On
Versions: 1 2 3 4 5 6 7 8 9 10 11 12 13 14 15 16 17 18 19 20 21 22 23 24 25 26 27 28 29 30 31 32 33 34 35 36 37 38 39 40 41 42 43 44 45 46 47 48 49 50
000 ASUS42 KCHS 202127 RWRCHS Regional Weather Roundup National Weather Service Charleston SC 400 PM EST SAT JAN 20 2018 NOTE: "fair" indicates few or no clouds below 12,000 feet with no significant weather and/or obstructions to visibility. Not all stations are quality controlled. Use data with caution, especially dewpoint observations. SCZ027-030-031-034>040-042>050-202200- ...Southeast South Carolina... CITY SKY/WX TMP DP RH WIND PRES REMARKS N Charleston FAIR 64 28 25 W8 30.18S Waterfront Prk NOT AVBL Mount Pleasant FAIR 57 34 41 S7 30.20R Johns Island FAIR 55 30 38 S13 30.23R Pinopolis N/A 61 36 39 SW7 30.08F Moncks Corner FAIR 63 27 25 SW5 30.17F Summerville FAIR 63 32 31 SW7 30.21R Beaufort MCAS FAIR 63 29 27 SW8 30.21R Beaufort Arpt FAIR 55 30 38 S9 30.21S Hilton Head Is SUNNY 54 27 35 S10 30.23R Walterboro FAIR 63 36 36 SW7 30.20R Allendale FAIR 64 37 36 VRB5 30.19R ...Southern Midlands and Pee Dee... CITY SKY/WX TMP DP RH WIND PRES REMARKS Georgetown FAIR 59 27 29 S7 30.18S Kingstree FAIR 63 30 29 SW5 30.17S Orangeburg FAIR 62 33 33 W6 30.17F Barnwell N/A 66 39 37 SW10 30.18S Aiken FAIR 61 34 36 W6 30.21S Manning FAIR 63 23 22 MISG 30.18R Columbia FAIR 64 25 22 NW5 30.18S Sumter FAIR 62 29 29 W7 30.16S Florence FAIR 62 31 31 NW9 30.17R Myrtle Beach NOT AVBL N Myrtle Beach FAIR 52 34 50 SW14 30.17S $$ GAZ063-065-086>088-099>101-113>116-118-119-134>141-150-202200- ...Southeast Georgia... CITY SKY/WX TMP DP RH WIND PRES REMARKS Savannah Arpt FAIR 64 27 24 SW7 30.21S Hunter AAF FAIR 62 21 20 SW8 30.18F Fort Stewart FAIR 63 26 24 SW9 30.20F Statesboro FAIR 65 32 29 W6 30.20F Sylvania FAIR 64 42 43 W5 30.20F Claxton FAIR 65 36 33 SW7 30.23R ...CSRA, Central and far Southeast Georgia... CITY SKY/WX TMP DP RH WIND PRES REMARKS Thomson FAIR 62 36 38 N8 30.23F Augusta-Bush FAIR 66 37 34 NW8 30.17F Augusta-Daniel FAIR 65 37 35 NW7 30.18F Swainsboro FAIR 64 41 42 SW3 30.21S Vidalia FAIR 64 39 39 W5 30.22R Eastman FAIR 65 23 20 NW3 30.25R Hazlehurst FAIR 64 21 19 CALM 30.21F Alma FAIR 61 20 20 SW3 30.23S Waycross FAIR 61 6 11 W6 30.25R Jesup NOT AVBL Baxley FAIR 61 32 33 W5 30.22F Brunswick FAIR 61 18 18 SW7 30.24F Saint Simons FAIR 54 29 38 SE7 30.24F $$ SCZ027-028-034-036>038-045-046-048>050-GAZ119-141-202200- ...Lake and Supplemental Coastal Observations... STATION/POSITION TIME TEMP WIND PRES WAVE SWELL AIR SEA DIR/SP/G HT/PER HT/PER/DIR (UTC) (F) (DEG/KT/KT) (MB) (FT/S) (FT/S/D) Winyah Bay 2030 58 190/ 10 1022.0S Lake Murray 2050 57 210/ 6/ 8 1021.3S ACE Basin NERRS 2045 57 170/ 2 1023.0S Fort Pulaski 2100 55 46 210/ 6/ 10 1023.3 Sapelo Island 2100 55 170/ 7 1024.0 $$ ANZ835-935-AMZ111-154-330-350-352-354-370-450-454-472-202200- ...C-MAN and Buoy Observations... STATION/POSITION TIME TEMP WIND PRES WAVE SWELL AIR SEA DIR/SP/G HT/PER HT/PER/DIR (UTC) (F) (DEG/KT/KT) (MB) (FT/S) (FT/S/D) Buoy 41004 2110 59 69 230/ 14/ 17 1023.1 Buoy 41008 2050 50 50 160/ 6/ 8 1023.9F 1/10 2/ 70/10 Folly Beach CMAN 2100 50 210/ 12/ 14 1023.6R Capers Nearshore 2108 48 220/ 12/ 17 1022.3S Fripp Nearshore 2108 47 46 200/ 8/ 12 1023.2R STATION/POSITION TIME TEMP WIND PRES WAVE SWELL AIR SEA DIR/SP/G HT/PER HT/PER/DIR (UTC) (F) (DEG/KT/KT) (MB) (FT/S) (FT/S/D) 5E St. Marys GA 2100 49 N/A 1/10 Frying Pan Buoy 2110 58 58 240/ 16/ 17 1022.1 Buoy 41025 2110 62 69 240/ 23/ 27 1020.4 Cape Lookout NC 2100 220/ 10/ 13 1021.1R Buoy 41002 2050 67 70 240/ 10/ 14 1023.5R 4/11 3/ 70/11 Buoy 41010 NOT AVBL St Augustine FL 2100 52 51 330/ 3/ 4 1025.4R $$

USA.gov is the U.S. government's official web portal to all federal, state and local government web resources and services.